CW7841 Weather Reports


Display with metric or nautical units.
time (UTC)temp
F
wind
direction
speed
MPH
gust
MPH
rain 1hr
in
rain 24hr
in
rain mn
in
humidity
%
barometer
mb
20191115232345 74 297 0.0 0.0 0.00 0.42 0.10 92 1012.3
20191115231845 74 296 0.0 0.0 0.00 0.42 0.10 92 1012.4
20191115231345 74 308 0.0 0.0 0.00 0.42 0.10 92 1012.2
20191115230345 75 292 0.0 0.0 0.00 0.42 0.10 92 1012.3
20191115225845 75 292 0.0 0.0 0.03 0.42 0.10 92 1012.0
20191115225345 75 292 0.0 0.0 0.03 0.42 0.10 92 1012.1
20191115224845 75 286 0.0 0.0 0.03 0.42 0.10 93 1012.1
20191115224345 75 284 0.0 0.0 0.03 0.42 0.10 92 1012.1
20191115223845 75 289 0.0 0.0 0.03 0.42 0.10 92 1012.0
20191115223345 76 287 0.0 0.0 0.03 0.42 0.10 92 1012.1
20191115222845 76 291 0.0 0.0 0.03 0.42 0.10 91 1012.0
20191115221345 76 292 0.0 0.0 0.03 0.42 0.10 91 1012.0
20191115220845 77 293 0.0 0.0 0.03 0.42 0.10 91 1012.1
20191115215846 77 290 0.0 0.0 0.06 0.42 0.10 91 1011.8
20191115214345 77 301 0.0 0.0 0.06 0.42 0.10 91 1011.9
20191115213346 77 285 0.0 0.0 0.05 0.41 0.09 91 1011.7
20191115211845 78 275 0.0 0.0 0.03 0.39 0.07 90 1012.1
20191115211346 78 275 0.0 0.0 0.03 0.39 0.07 90 1012.3
20191115210845 78 275 0.0 0.0 0.03 0.39 0.07 90 1012.1
20191115210345 78 271 0.0 0.0 0.03 0.39 0.07 90 1012.1
20191115205845 78 270 0.0 4.0 0.03 0.39 0.07 90 1012.1
20191115205346 78 270 0.0 4.0 0.03 0.38 0.07 90 1012.1
20191115204346 78 273 0.0 4.0 0.00 0.36 0.04 90 1012.2
20191115203345 78 258 0.0 4.0 0.00 0.36 0.04 90 1012.1
20191115202846 78 233 0.0 4.0 0.00 0.36 0.04 89 1012.2
20191115202346 78 235 0.0 4.0 0.00 0.36 0.04 89 1012.1
20191115201845 78 253 0.0 4.0 0.00 0.36 0.04 88 1011.8
20191115200845 78 205 0.0 0.0 0.00 0.36 0.04 88 1012.0
20191115195346 79 183 2.0 10.0 0.00 0.36 0.04 87 1012.0
20191115194346 79 191 3.0 10.0 0.00 0.36 0.04 86 1011.9
20191115193845 79 200 0.0 10.0 0.00 0.36 0.04 86 1012.0
20191115193345 79 203 0.0 10.0 0.00 0.36 0.04 86 1012.1
20191115192846 79 225 0.0 10.0 0.00 0.36 0.04 86 1011.8
20191115192346 80 214 0.0 10.0 0.00 0.36 0.04 85 1011.8
20191115191846 80 190 0.0 10.0 0.00 0.36 0.04 85 1012.0
20191115184846 79 214 5.0 12.0 0.00 0.36 0.04 83 1012.2
20191115184346 79 228 0.0 10.0 0.00 0.36 0.04 83 1012.3
20191115183346 79 210 0.0 9.0 0.00 0.36 0.04 85 1012.3
20191115182346 79 212 0.0 9.0 0.00 0.36 0.04 84 1012.7
20191115181846 79 212 0.0 9.0 0.00 0.36 0.04 84 1012.5
20191115181346 79 201 0.0 9.0 0.00 0.36 0.04 85 1012.6
20191115180846 79 233 0.0 9.0 0.00 0.36 0.04 85 1012.6
20191115175346 79 258 0.0 11.0 0.00 0.36 0.04 85 1013.0
20191115174346 79 215 0.0 10.0 0.00 0.36 0.04 86 1012.7
20191115173346 79 224 0.0 10.0 0.00 0.36 0.04 85 1013.3
20191115172846 79 222 0.0 10.0 0.00 0.36 0.04 85 1013.4
20191115164346 80 220 8.0 12.0 0.00 0.36 0.04 87 1013.7
20191115163846 80 198 0.0 12.0 0.00 0.36 0.04 87 1013.9
20191115162846 80 220 0.0 12.0 0.00 0.36 0.04 87 1014.4
20191115162346 79 228 7.0 12.0 0.00 0.36 0.04 88 1014.3
20191115161346 79 216 0.0 11.0 0.00 0.36 0.04 90 1014.2
20191115160846 78 210 0.0 4.0 0.00 0.36 0.04 92 1014.2
20191115160346 78 235 0.0 0.0 0.00 0.36 0.04 92 1014.2
20191115155846 78 210 0.0 12.0 0.01 0.36 0.04 93 1014.2
20191115153846 77 224 0.0 12.0 0.01 0.36 0.04 95 1014.7
20191115153346 77 200 0.0 12.0 0.01 0.36 0.04 96 1014.5
20191115152846 76 204 0.0 12.0 0.01 0.36 0.04 100 1014.5
20191115152346 76 204 4.0 12.0 0.01 0.36 0.04 97 1014.8
20191115150347 75 214 0.0 7.0 0.01 0.36 0.04 98 1014.9
20191115145346 75 245 5.0 10.0 0.01 0.36 0.04 99 1014.9
20191115144846 75 219 0.0 10.0 0.01 0.36 0.04 98 1015.1
20191115143846 75 241 4.0 10.0 0.01 0.36 0.04 99 1015.2
20191115142846 75 219 0.0 10.0 0.01 0.36 0.04 99 1015.2
20191115140846 74 216 1.0 8.0 0.00 0.35 0.03 100 1015.1
20191115135846 74 200 1.0 7.0 0.00 0.35 0.03 100 1015.1
20191115135346 74 214 5.0 7.0 0.00 0.35 0.03 100 1015.1
20191115134847 74 239 0.0 7.0 0.00 0.35 0.03 100 1014.8
20191115133346 74 200 0.0 6.0 0.00 0.35 0.03 100 1014.9
20191115132846 74 226 0.0 4.0 0.00 0.35 0.03 100 1015.2
20191115131847 73 203 0.0 4.0 0.00 0.35 0.03 100 1015.1
20191115131347 73 218 0.0 4.0 0.00 0.35 0.03 99 1015.1
20191115130347 73 193 0.0 0.0 0.00 0.35 0.03 99 1015.0
20191115125847 73 184 0.0 5.0 0.00 0.35 0.03 99 1014.9
20191115124347 73 212 0.0 0.0 0.00 0.35 0.03 99 1015.1
20191115122847 73 191 0.0 0.0 0.00 0.35 0.03 99 1015.3
20191115114347 73 102 0.0 0.0 0.00 0.35 0.03 99 1014.8
20191115113847 73 102 0.0 0.0 0.00 0.35 0.03 99 1014.8
20191115113347 73 102 0.0 0.0 0.00 0.35 0.03 99 1014.6
20191115112847 73 102 0.0 0.0 0.00 0.35 0.03 99 1014.6
20191115111847 73 102 0.0 0.0 0.00 0.35 0.03 99 1014.4
20191115111347 73 102 0.0 0.0 0.00 0.35 0.03 99 1014.8
20191115110847 73 102 0.0 0.0 0.00 0.35 0.03 99 1014.4
20191115110347 73 102 0.0 0.0 0.00 0.35 0.03 99 1014.6
20191115105347 73 102 0.0 0.0 0.00 0.35 0.03 99 1014.5
20191115103347 73 102 0.0 0.0 0.00 0.35 0.03 99 1014.8
20191115102847 73 102 0.0 0.0 0.00 0.35 0.03 99 1014.8
20191115102347 73 102 0.0 0.0 0.00 0.35 0.03 99 1014.9
20191115101847 73 102 0.0 0.0 0.00 0.35 0.03 99 1014.7
20191115100847 73 102 0.0 0.0 0.00 0.35 0.03 99 1014.6
20191115095847 73 102 0.0 0.0 0.00 0.35 0.03 99 1014.3
20191115094847 74 102 0.0 0.0 0.00 0.35 0.03 99 1014.4
20191115094347 74 102 0.0 0.0 0.00 0.35 0.03 99 1014.3
20191115093847 74 102 0.0 0.0 0.00 0.35 0.03 99 1014.3
20191115093347 74 102 0.0 0.0 0.00 0.35 0.03 99 1014.4
20191115092347 74 102 0.0 0.0 0.00 0.35 0.03 99 1014.3
20191115091847 74 102 0.0 0.0 0.00 0.35 0.03 99 1014.4
20191115090347 74 102 0.0 0.0 0.00 0.35 0.03 99 1014.5
20191115085847 74 102 0.0 0.0 0.00 0.35 0.03 99 1014.7
20191115084347 74 102 0.0 0.0 0.00 0.35 0.03 99 1014.6
20191115083347 74 102 0.0 0.0 0.00 0.35 0.03 99 1014.8
20191115082847 74 102 0.0 0.0 0.00 0.35 0.03 99 1014.9
20191115082347 74 102 0.0 0.0 0.00 0.35 0.03 99 1015.0
20191115080347 74 102 0.0 0.0 0.00 0.35 0.03 99 1015.2
20191115075347 74 102 0.0 0.0 0.01 0.35 0.03 99 1015.2
20191115074347 74 102 0.0 0.0 0.01 0.35 0.03 99 1015.2
20191115071847 74 102 0.0 0.0 0.01 0.35 0.03 99 1015.9
20191115071347 74 102 0.0 0.0 0.01 0.35 0.03 99 1015.8
20191115070347 74 102 0.0 0.0 0.01 0.35 0.03 99 1016.0
20191115064847 74 102 0.0 10.0 0.03 0.35 0.03 99 1015.6
20191115064347 74 102 0.0 10.0 0.03 0.35 0.03 99 1015.8
20191115063847 74 102 0.0 10.0 0.03 0.35 0.03 99 1015.6
20191115063348 74 102 0.0 10.0 0.03 0.35 0.03 99 1015.6
20191115062847 74 74 0.0 10.0 0.03 0.35 0.03 99 1015.4
20191115061348 73 116 4.0 10.0 0.03 0.35 0.03 99 1015.3
20191115060848 73 92 5.0 9.0 0.03 0.35 0.03 99 1015.1
20191115055847 73 94 0.0 10.0 0.03 0.34 0.02 99 1015.7
20191115054848 73 80 0.0 8.0 0.02 0.33 0.01 98 1016.3
20191115054348 73 74 0.0 8.0 0.02 0.33 0.01 98 1016.2
20191115053848 73 75 0.0 8.0 0.01 0.32 0.00 98 1016.6
20191115053347 73 75 0.0 8.0 0.01 0.32 0.00 98 1016.9
20191115052848 73 64 0.0 8.0 0.01 0.32 0.00 98 1016.7
20191115052347 73 111 0.0 8.0 0.01 0.32 0.00 98 1017.0
20191115050848 73 103 0.0 6.0 0.01 0.32 0.00 98 1017.5
20191115045848 73 123 2.0 8.0 0.30 0.32 0.32 98 1017.7
20191115045348 73 116 3.0 8.0 0.30 0.32 0.32 98 1017.7
20191115044848 73 99 0.0 5.0 0.29 0.31 0.31 98 1017.9
20191115044348 73 114 3.0 5.0 0.29 0.31 0.31 98 1017.8
20191115043348 73 65 0.0 0.0 0.29 0.31 0.31 98 1018.0
20191115042348 73 65 0.0 0.0 0.29 0.31 0.31 98 1018.1
20191115041348 73 65 0.0 0.0 0.29 0.31 0.31 97 1018.2
20191115040348 73 65 0.0 0.0 0.29 0.31 0.31 97 1018.5
20191115035848 73 65 0.0 10.0 0.30 0.31 0.31 97 1018.2
20191115035348 73 65 0.0 10.0 0.30 0.31 0.31 97 1018.6
20191115034848 73 8 0.0 10.0 0.30 0.31 0.31 97 1018.4
20191115034348 73 56 0.0 10.0 0.29 0.30 0.30 97 1018.3
20191115033848 73 174 0.0 10.0 0.14 0.15 0.15 97 1018.3
20191115032848 74 31 0.0 10.0 0.06 0.06 0.07 97 1018.4
20191115032348 74 69 3.0 10.0 0.05 0.06 0.06 97 1018.3
20191115031848 74 58 3.0 10.0 0.03 0.03 0.04 96 1018.3
20191115031348 74 101 0.0 10.0 0.01 0.02 0.02 96 1018.5
20191115030848 74 112 2.0 6.0 0.01 0.02 0.02 96 1018.5
20191115030348 74 70 0.0 3.0 0.01 0.02 0.02 96 1018.6
20191115025848 74 47 0.0 9.0 0.02 0.02 0.02 96 1018.5
20191115024848 74 81 0.0 9.0 0.02 0.02 0.02 95 1018.7
20191115023848 74 68 0.0 9.0 0.02 0.02 0.02 95 1018.5
20191115023348 74 75 0.0 9.0 0.02 0.02 0.02 94 1018.3
20191115022848 74 95 0.0 9.0 0.02 0.02 0.02 94 1018.5
20191115021349 75 97 0.0 9.0 0.01 0.01 0.01 93 1018.8
20191115015848 75 97 0.0 15.0 0.01 0.01 0.01 92 1018.4
20191115012848 75 113 3.0 15.0 0.00 0.00 0.00 90 1018.4
20191115011848 75 102 0.0 0.0 0.00 0.00 0.00 90 1018.0
20191115011348 75 84 0.0 0.0 0.00 0.00 0.00 90 1018.0
20191115010848 75 96 0.0 0.0 0.00 0.00 0.00 90 1018.1
20191115010348 75 74 0.0 0.0 0.00 0.00 0.00 89 1018.3
20191115005848 75 75 0.0 10.0 0.00 0.00 0.00 88 1018.2
20191115004848 76 105 0.0 10.0 0.00 0.00 0.00 89 1018.3
20191115002848 76 105 0.0 10.0 0.00 0.00 0.00 90 1017.9
20191115002348 76 107 3.0 10.0 0.00 0.00 0.00 90 1018.0
20191115001348 75 122 3.0 6.0 0.00 0.00 0.00 90 1018.4
20191115000348 75 112 0.0 6.0 0.00 0.00 0.00 90 1018.2
20191114234848 75 66 0.0 11.0 0.00 0.00 0.00 90 1018.1
20191114233848 75 66 0.0 11.0 0.00 0.00 0.00 89 1017.9